Regional Weather Roundup
Issued by NWS

Home | Current Version | Previous Version | Graphics & Text | Print | Product List | Glossary Off
Versions: 1 2 3 4 5 6 7 8 9 10 11 12 13 14 15 16 17 18 19 20 21 22 23 24 25 26 27 28 29 30 31 32 33 34 35 36 37 38 39 40 41 42 43 44 45 46 47 48 49 50

000
ASUS43 KMKX 270724
RWRWI

WISCONSIN REGIONAL WEATHER ROUNDUP
NATIONAL WEATHER SERVICE MILWAUKEE/SULLIVAN WI
200 AM CDT WED MAY 27 2015

NOTE: "FAIR" INDICATES FEW OR NO CLOUDS BELOW 12,000 FEET WITH NO
SIGNIFICANT WEATHER AND/OR OBSTRUCTIONS TO VISIBILITY.

WIZ001-002-006>008-014>016-023>028-270800-
NORTHWEST WISCONSIN

CITY           SKY/WX    TMP DP  RH WIND       PRES   REMARKS
SUPERIOR ARPT  CLOUDY    50  49  99 CALM      29.78F
ASHLAND        CLOUDY    52  52 100 SW3       29.77F
HAYWARD        LGT RAIN  53  51  93 NW5       29.79R
SIREN          CLOUDY    53  52  97 CALM      29.81S
CUMBERLAND     CLOUDY    54  52  94 NW3       29.80S
RICE LAKE      DRIZZLE   55  53  94 W6        29.81R
CHETEK         DRIZZLE   55  55  99 W5        29.80R
LADYSMITH      RAIN      54  53  96 NW7       29.78F
EAU CLAIRE     LGT RAIN  56  54  93 W6        29.79R
MENOMONIE      DRIZZLE   57  57  99 W6        29.81R
NEW RICHMOND   CLOUDY    56  56 100 W5        29.82S FOG
OSCEOLA        CLOUDY    55  55 100 CALM      29.84S
$$

WIZ003>005-009-010-017-018-270800-
NORTH CENTRAL WISCONSIN

CITY           SKY/WX    TMP DP  RH WIND       PRES   REMARKS
MANITOWISH WTR RAIN      51  51 100 N7        29.73S
ARBOR VITAE    RAIN      53  52  95 NW9G17    29.72S
WOODRUFF       RAIN      53  52  95 NW9G17    29.72S
RHINELANDER    RAIN      54  53  97 NW10G18   29.71R FOG
EAGLE RIVER    HVY RAIN  53  53 100 NW10G16   29.70R
LAND O LAKES   LGT RAIN  53  53  99 NW10G16   29.71R
PHILLIPS       RAIN      50  50 100 CALM      29.75S
TOMAHAWK       RAIN      54  52  95 NW10G16   29.72S
MEDFORD        DRIZZLE   54  53  97 NW12      29.74R
MERRILL        RAIN      57  57 100 NW13      29.71R
$$

WIZ029-030-035-036-043>047-270800-
CENTRAL WISCONSIN

CITY           SKY/WX    TMP DP  RH WIND       PRES   REMARKS
WAUSAU         CLOUDY    58  56  93 W14       29.68R
MOSINEE        LGT RAIN  55  55 100 W10G16    29.72R
MARSHFIELD     LGT RAIN  58  54  86 W14G23    29.75R
STEVENS POINT  CLOUDY    57  56  96 W12G21    29.72R
WAUPACA        CLOUDY    63  61  93 W17G23    29.71R
WAUTOMA        CLOUDY    62  60  93 W13       29.75R
WISC RAPIDS    CLOUDY    60  56  86 W12G20    29.75R
CAMP DOUGLAS   MOCLDY   N/A N/A N/A W10       29.77R
$$

WIZ011>013-019>022-031-037>040-048>050-270800-
NORTHEAST WISCONSIN

CITY           SKY/WX    TMP DP  RH WIND       PRES   REMARKS
ANTIGO         LGT RAIN  58  58  99 NW14G20   29.65R
SHAWANO        DRIZZLE   63  61  94 W12G17    29.63R
OCONTO         CLOUDY    61  61 100 SW6       29.60F
STURGEON BAY   CLOUDY    63  55  77 SW15G22   29.64F
GREEN BAY      CLOUDY    65  59  81 SW18G32   29.64R
MANITOWOC      MOCLDY    64  57  77 W17G29    29.71R
APPLETON       CLOUDY    61  55  82 SW21G29   29.70R
CLINTONVILLE   DRIZZLE   61  61 100 W12G23    29.64R
OSHKOSH        CLOUDY    63  56  78 SW12G23   29.72R
$$

WIZ032>034-041-042-053>061-270800-
SOUTHWEST WISCONSIN

CITY           SKY/WX    TMP DP  RH WIND       PRES   REMARKS
LA CROSSE      CLOUDY    61  58  90 W8        29.80R
SPARTA         DRIZZLE   59  58  96 SW3       29.80R
VIROQUA        CLOUDY    58  58 100 W8        29.82R
BOSCOBEL       MOCLDY    60  58  92 S5        29.81S
PRAIRIE DU CHI CLOUDY    61  57  88 CALM      29.82R
PLATTEVILLE    CLOUDY    60  59  98 SW8       29.83R
$$

WIZ056-057-062-063-064-067-068-270800-
SOUTH CENTRAL WISCONSIN

CITY           SKY/WX    TMP DP  RH WIND       PRES   REMARKS
REEDSBURG      CLOUDY    60  58  92 W9        29.79R
BARABOO/DELLS  MOCLDY    59  56  91 W7        29.79R
LONE ROCK      CLOUDY    60  58  92 CALM      29.81R
MINERAL POINT  MOCLDY    61  59  94 CALM      29.82R
MADISON        CLEAR     61  57  87 VRB6      29.79S
MIDDLETON      MOCLDY    60  59  94 W6        29.81R
WATERTOWN      PTCLDY    60  60 100 SW7       29.79R
MONROE         CLOUDY    61  59  94 SW8       29.82R
JANESVILLE     MOCLDY    63  61  94 SW5       29.81S
$$

WIZ051-052-058>065-066-070>072-270800-
SOUTHEAST WISCONSIN

CITY           SKY/WX    TMP DP  RH WIND       PRES   REMARKS
MILWAUKEE      MOCLDY    65  60  84 SW10      29.80R
WAUKESHA       PTCLDY    61  55  82 SW6       29.81S
MILWAUKEE/TIMM PTCLDY    63  55  77 SW10      29.80S
RACINE         CLOUDY    65  60  84 SW8       29.82R
BURLINGTON     CLOUDY    62  60  96 SW7       29.81S
KENOSHA        MOCLDY    64  62  93 SW12      29.81S
FOND DU LAC    CLEAR     62  57  83 SW13      29.75R
SHEBOYGAN      PTCLDY    62  57  83 SW18      29.74S
WEST BEND      PTCLDY    63  55  77 SW9G16    29.78R
JUNEAU         MOCLDY    59  57  93 SW13      29.79S
$$

LSZ147-162-270800-
LAKE SUPERIOR

STATION/POSITION TIME  TEMP    WIND        PRES    WAVE
                       AIR SEA DIR/SP/G            HT/PER
                 (UTC) (F)     (DEG/KT/KT) (MB)    (FT/S)
W MID LAKE BUOY  0650   41 37  230/  8/  8 1074.0F   0
DEVILS ISLAND    0700   46     240/ 12/ 13 1079.0F
PORT WING        0640   49     120/  1/  2 1088.0S
SAXON HARBOR     0640   50        CALM     1078.0F
$$

LMZ867-665-643>646-270800-
LAKE MICHIGAN

STATION/POSITION TIME  TEMP    WIND        PRES    WAVE
                       AIR SEA DIR/SP/G            HT/PER
                 (UTC) (F)     (DEG/KT/KT) (MB)    (FT/S)
CHAMBERS ISLAND  0600   57     160/  6/ 10 1034.0S
N MID LAKE BUOY  0650   43 37  190/ 16/ 17 1041.0S   3/ 5
NORTHPORT PIER   0600   49     150/  7/ 11 1037.0F
SISTER BAY       0618   50     150/ 10/ 13   N/A
ALGOMA LAKESHORE 0608          230/ 22/ 31   N/A
KEWAUNEE LAKESHO 0606          230/ 14/ 23 1039.0S
SHEBOYGAN LAKESH 0700   63     220/ 15/ 19 1074.0R
PORT WASHINGTON  0600   65     240/  7/ 11 1085.0
ATWATER BUOY     0700   61 44  220/ 12/ 14   N/A
MILWAUKEE LAKESH 0600   65     220/ 11/ 13   N/A
S MID LAKE BUOY  0650   47 38  190/ 14/ 16   N/A     2/ 4
KENOSHA   LAKESH 0700   66     230/  9/ 13   N/A
$$

TC  - TEMPERATURE IN CELSIUS
VSB - VISIBILITY IN STATUTE MILES
WCI - WIND CHILL INDEX
HX  - HEAT INDEX



USA.gov is the U.S. government's official web portal to all federal, state and local government web resources and services.